Location: Franzen
(48.6167°N, 15.3833°E)
Time: 17:01:26
(UTC+00:00)

Gbstr 26 Del rocket - Visible Passes

Search period start: 02 August 2021 00:00
Search period end: 12 August 2021 00:00
Orbit: 492 x 1264 km, 51.8° (Epoch: 02 August)

Date Brightness Start Highest point End Pass type
(mag) Time Alt. Az. Time Alt. Az. Time Alt. Az.
02 Aug 3.9 19:47:20 10° W 19:50:37 30° SW 19:53:23 14° SSE visible
03 Aug 4.3 19:42:37 10° W 19:45:40 24° SW 19:48:36 11° SSE visible
04 Aug 4.6 19:37:59 10° W 19:40:41 19° SW 19:43:30 10° S visible
05 Aug 5.0 19:33:29 10° W 19:35:41 15° SW 19:37:57 10° S visible
06 Aug 5.2 19:29:20 10° WSW 19:30:40 12° SW 19:32:02 10° SSW visible
